Regional Weather Roundup
Issued by NWS

Home | Current Version | Previous Version | Text Only | Print | Product List | Glossary On
Versions: 1 2 3 4 5 6 7 8 9 10 11 12 13 14 15 16 17 18 19 20 21 22 23 24 25 26 27 28 29 30 31 32 33 34 35 36 37 38 39 40 41 42 43 44 45 46 47 48 49 50
000
ASUS44 KLIX 291511
RWRLA
LOUISIANA WEATHER ROUNDUP
NATIONAL WEATHER SERVICE NEW ORLEANS LA
1000 AM CDT FRI MAY 29 2015

NOTE: "FAIR" INDICATES FEW OR NO CLOUDS BELOW 12,000 FEET WITH NO
      SIGNIFICANT WEATHER AND/OR OBSTRUCTIONS TO VISIBILITY.
      SKY/WX - SKY CONDITION AND SIGNIFICANT WEATHER.
      TMP - AIR TEMPERATURE.    DP   - DEWPOINT TEMPERATURE.
      RH  - RELATIVE HUMIDITY.  PRES - PRESSURE.
      HX  - HEAT INDEX.         WCI  - WIND CHILL INDEX.

*  THESE STATIONS ARE NOT NWS OR FAA STATIONS AND ARE NOT UNDER
   NWS QUALITY CONTROL.

LAZ040-048-061>063-065-066-069-291600-
SOUTHEAST LOUISIANA

CITY           SKY/WX    TMP DP  RH WIND       PRES   REMARKS
N.O. AUDUBON     N/A     84  73  67 MISG        N/A
N.O. INTL ARPT MOSUNNY   83  70  64 SE8       30.08S
N.O. LAKEFRONT MOSUNNY   86  69  56 SE9       30.09S
SLIDELL        MOSUNNY   83  71  67 VRB3      30.09R
BATON ROUGE    MOSUNNY   80  71  74 S8        30.07S
BOOTHVILLE     SUNNY     83  71  67 SE7       30.11R
BELLE CHASSE   LGT RAIN  79  70  74 VRB3      30.08S
BOGALUSA*        N/A     83  71  66 SW5       30.12S
GALLIANO*      PTSUNNY   83  71  68 S6        30.09S
NEW ROADS*     FAIR      81  74  78 S7        30.07S
GONZALES*      FAIR      82  73  73 SE6       30.06S
HAMMOND*       SUNNY     82  68  61 S7        30.10S
HOUMA*         MOSUNNY   84  72  65 SE8       30.08R
PORT FOURCHON* MOSUNNY   82  72  69 S7G13     30.09S

$$

LAZ041-044-053-054-291600-
SOUTHWEST LOUISIANA

CITY           SKY/WX    TMP DP  RH WIND       PRES   REMARKS
LAKE CHARLES   PTSUNNY   84  73  69 S7G17     30.03S
LAFAYETTE      PTSUNNY   83  73  72 S7        30.06S
PATTERSON      PTSUNNY   81  72  74 S8        30.08R
SALT POINT       N/A     84  74  71 VRB3      30.05R
NEW IBERIA     PTSUNNY   84  73  69 S10       30.06S
CHENAULT AIRPK PTSUNNY   84  73  70 S12G18    30.04R

$$

LAZ027-028-291600-
CENTRAL LOUISIANA

CITY           SKY/WX    TMP DP  RH WIND       PRES   REMARKS
FORT POLK      PTSUNNY   81  73  76 S12       30.02S
ALEXANDRIA INT PTSUNNY   82  74  76 S6        30.02F
ALEXANDRIA     MOSUNNY   82  73  74 S7        30.04F

$$

LAZ001-002-291600-
NORTHWEST LOUISIANA

CITY           SKY/WX    TMP DP  RH WIND       PRES   REMARKS
SHREVEPORT     CLOUDY    79  73  82 SE13      29.98S
BARKSDALE AFB  CLOUDY    79  73  83 SE13      29.99S
DTN SHREVEPORT CLOUDY    77  71  82 SE9       29.99F

$$

LAZ014-016-291600-
NORTHEAST LOUISIANA

CITY           SKY/WX    TMP DP  RH WIND       PRES   REMARKS
MONROE         PTSUNNY   79  73  82 S7        30.06S
TALLULAH       CLOUDY    80  72  76 S6        30.09R

$$




USA.gov is the U.S. government's official web portal to all federal, state and local government web resources and services.